Time,TemperatureF,DewpointF,PressureIn,WindDirection,WindDirectionDegrees,WindSpeedMPH,WindSpeedGustMPH,Humidity,HourlyPrecipIn,Conditions,Clouds,dailyrainin,SolarRadiationWatts/m^2,SoftwareType,DateUTC
2013-01-03 00:03:00,38.3,27.5,30.25,ESE,119,22.0,35.0,65,0.00,,,0.00,0.0,meteohub,2013-01-03 08:03:00,
2013-01-03 00:08:00,38.5,27.7,30.25,SE,130,14.0,35.0,65,0.00,,,0.00,0.0,meteohub,2013-01-03 08:08:00,
2013-01-03 00:13:00,38.8,27.7,30.25,ESE,123,21.0,35.0,64,0.00,,,0.00,0.0,meteohub,2013-01-03 08:13:00,
2013-01-03 00:18:00,38.5,27.3,30.25,ESE,118,18.0,29.0,64,0.00,,,0.00,0.0,meteohub,2013-01-03 08:18:00,
2013-01-03 00:23:00,38.5,27.7,30.25,West,272,9.0,33.0,65,0.00,,,0.00,0.0,meteohub,2013-01-03 08:23:00,
2013-01-03 00:28:00,38.5,27.7,30.25,SE,130,17.0,33.0,65,0.00,,,0.00,0.0,meteohub,2013-01-03 08:28:00,
2013-01-03 00:33:00,38.3,27.9,30.25,ESE,105,21.0,31.0,66,0.00,,,0.00,0.0,meteohub,2013-01-03 08:33:00,
2013-01-03 00:38:00,38.3,27.9,30.25,SE,126,37.0,37.0,66,0.00,,,0.00,0.0,meteohub,2013-01-03 08:38:00,
2013-01-03 00:43:00,37.9,28.0,30.25,ESE,123,22.0,37.0,67,0.00,,,0.00,0.0,meteohub,2013-01-03 08:43:00,
2013-01-03 00:48:00,37.9,27.7,30.25,ESE,113,6.0,37.0,66,0.00,,,0.00,0.0,meteohub,2013-01-03 08:48:00,
2013-01-03 00:53:00,37.9,28.0,30.26,ESE,102,22.0,37.0,67,0.00,,,0.00,0.0,meteohub,2013-01-03 08:53:00,
2013-01-03 00:58:00,38.1,27.9,30.25,ENE,78,21.0,32.0,66,0.00,,,0.00,0.0,meteohub,2013-01-03 08:58:00,
2013-01-03 01:04:00,37.9,27.7,30.25,East,84,34.0,34.0,66,0.00,,,0.00,0.0,meteohub,2013-01-03 09:04:00,
2013-01-03 01:09:00,38.3,27.5,30.24,ESE,123,19.0,34.0,65,0.00,,,0.00,0.0,meteohub,2013-01-03 09:09:00,
2013-01-03 01:14:00,38.1,27.9,30.25,ESE,121,10.0,35.0,66,0.00,,,0.00,0.0,meteohub,2013-01-03 09:14:00,
2013-01-03 01:19:00,37.9,27.7,30.25,SSW,196,9.0,35.0,66,0.00,,,0.00,0.0,meteohub,2013-01-03 09:19:00,
2013-01-03 01:24:00,37.6,28.0,30.24,ENE,73,11.0,36.0,68,0.00,,,0.00,0.0,meteohub,2013-01-03 09:24:00,
2013-01-03 01:29:00,37.8,27.9,30.25,SE,126,25.0,36.0,67,0.00,,,0.00,0.0,meteohub,2013-01-03 09:29:00,
2013-01-03 01:34:00,37.8,27.9,30.25,SE,128,23.0,36.0,67,0.00,,,0.00,0.0,meteohub,2013-01-03 09:34:00,
2013-01-03 01:39:00,37.6,28.4,30.24,ESE,117,26.0,34.0,69,0.00,,,0.00,0.0,meteohub,2013-01-03 09:39:00,
2013-01-03 01:44:00,37.6,28.4,30.24,ESE,117,19.0,34.0,69,0.00,,,0.00,0.0,meteohub,2013-01-03 09:44:00,
2013-01-03 01:49:00,37.6,28.0,30.24,SE,146,21.0,34.0,68,0.00,,,0.00,0.0,meteohub,2013-01-03 09:49:00,
2013-01-03 01:54:00,37.6,28.0,30.24,ESE,117,14.0,35.0,68,0.00,,,0.00,0.0,meteohub,2013-01-03 09:54:00,
2013-01-03 01:59:00,37.8,27.9,30.24,East,94,21.0,35.0,67,0.00,,,0.00,0.0,meteohub,2013-01-03 09:59:00,
2013-01-03 02:04:00,37.8,28.2,30.24,SE,124,23.0,35.0,68,0.00,,,0.00,0.0,meteohub,2013-01-03 10:04:00,
2013-01-03 02:09:00,37.6,28.0,30.24,East,91,22.0,35.0,68,0.00,,,0.00,0.0,meteohub,2013-01-03 10:09:00,
2013-01-03 02:14:00,37.9,28.0,30.24,ESE,116,21.0,35.0,67,0.00,,,0.00,0.0,meteohub,2013-01-03 10:14:00,
2013-01-03 02:19:00,37.8,28.2,30.24,NE,49,5.0,40.0,68,0.00,,,0.00,0.0,meteohub,2013-01-03 10:19:00,
2013-01-03 02:25:00,37.6,28.0,30.24,SSE,158,16.0,40.0,68,0.00,,,0.00,0.0,meteohub,2013-01-03 10:25:00,
2013-01-03 02:30:00,37.6,28.0,30.24,East,90,27.0,40.0,68,0.00,,,0.00,0.0,meteohub,2013-01-03 10:30:00,
2013-01-03 02:35:00,37.6,28.0,30.24,ESE,111,25.0,34.0,68,0.00,,,0.00,0.0,meteohub,2013-01-03 10:35:00,
2013-01-03 02:40:00,37.6,28.0,30.24,East,99,27.0,34.0,68,0.00,,,0.00,0.0,meteohub,2013-01-03 10:40:00,
2013-01-03 02:45:00,37.9,28.0,30.24,ESE,119,22.0,34.0,67,0.00,,,0.00,0.0,meteohub,2013-01-03 10:45:00,
2013-01-03 02:50:00,37.6,28.0,30.24,ESE,117,29.0,35.0,68,0.00,,,0.00,0.0,meteohub,2013-01-03 10:50:00,
2013-01-03 02:55:00,37.8,27.9,30.24,ESE,115,27.0,43.0,67,0.00,,,0.00,0.0,meteohub,2013-01-03 10:55:00,
2013-01-03 03:00:00,37.8,27.9,30.24,SSE,147,13.0,43.0,67,0.00,,,0.00,0.0,meteohub,2013-01-03 11:00:00,
2013-01-03 03:05:00,37.6,28.0,30.24,East,98,24.0,43.0,68,0.00,,,0.00,0.0,meteohub,2013-01-03 11:05:00,
2013-01-03 03:10:00,37.9,27.7,30.24,East,86,22.0,38.0,66,0.00,,,0.00,0.0,meteohub,2013-01-03 11:10:00,
2013-01-03 03:15:00,37.6,28.0,30.24,ESE,123,19.0,38.0,68,0.00,,,0.00,0.0,meteohub,2013-01-03 11:15:00,
2013-01-03 03:20:00,37.6,28.0,30.23,ESE,117,24.0,37.0,68,0.00,,,0.00,0.0,meteohub,2013-01-03 11:20:00,
2013-01-03 03:25:00,37.2,28.0,30.23,SE,124,14.0,37.0,69,0.00,,,0.00,0.0,meteohub,2013-01-03 11:25:00,
2013-01-03 03:30:00,37.0,28.2,30.23,SE,136,20.0,36.0,70,0.00,,,0.00,0.0,meteohub,2013-01-03 11:30:00,
2013-01-03 03:35:00,37.2,27.7,30.23,ESE,106,28.0,36.0,68,0.00,,,0.00,0.0,meteohub,2013-01-03 11:35:00,
2013-01-03 03:40:00,37.6,28.4,30.23,SSE,149,20.0,33.0,69,0.00,,,0.00,0.0,meteohub,2013-01-03 11:40:00,
2013-01-03 03:45:00,37.6,28.0,30.23,East,79,25.0,38.0,68,0.00,,,0.00,0.0,meteohub,2013-01-03 11:45:00,
2013-01-03 03:50:00,37.2,27.7,30.23,SE,132,20.0,38.0,68,0.00,,,0.00,0.0,meteohub,2013-01-03 11:50:00,
2013-01-03 03:55:00,37.2,28.0,30.22,ENE,71,6.0,38.0,69,0.00,,,0.00,0.0,meteohub,2013-01-03 11:55:00,
2013-01-03 04:00:00,37.0,27.9,30.22,East,90,23.0,34.0,69,0.00,,,0.00,0.0,meteohub,2013-01-03 12:00:00,
2013-01-03 04:05:00,37.0,27.9,30.22,East,96,34.0,34.0,69,0.00,,,0.00,0.0,meteohub,2013-01-03 12:05:00,
2013-01-03 04:11:00,37.2,28.0,30.22,ESE,105,27.0,34.0,69,0.00,,,0.00,0.0,meteohub,2013-01-03 12:11:00,
2013-01-03 04:16:00,37.2,27.7,30.22,East,81,27.0,40.0,68,0.00,,,0.00,0.0,meteohub,2013-01-03 12:16:00,
2013-01-03 04:21:00,37.2,27.7,30.22,ESE,114,22.0,40.0,68,0.00,,,0.00,0.0,meteohub,2013-01-03 12:21:00,
2013-01-03 04:26:00,37.0,27.9,30.21,East,85,21.0,40.0,69,0.00,,,0.00,0.0,meteohub,2013-01-03 12:26:00,
2013-01-03 04:31:00,36.9,28.0,30.21,ESE,117,20.0,35.0,70,0.00,,,0.00,0.0,meteohub,2013-01-03 12:31:00,
2013-01-03 04:36:00,36.9,28.4,30.20,SSE,147,11.0,35.0,71,0.00,,,0.00,0.0,meteohub,2013-01-03 12:36:00,
2013-01-03 04:41:00,37.0,27.9,30.21,East,97,18.0,33.0,69,0.00,,,0.00,0.0,meteohub,2013-01-03 12:41:00,
2013-01-03 04:46:00,37.2,27.7,30.20,ESE,117,23.0,33.0,68,0.00,,,0.00,0.0,meteohub,2013-01-03 12:46:00,
2013-01-03 04:51:00,37.0,27.9,30.19,ESE,104,15.0,35.0,69,0.00,,,0.00,0.0,meteohub,2013-01-03 12:51:00,
2013-01-03 04:56:00,36.9,27.7,30.19,ESE,104,35.0,35.0,69,0.00,,,0.00,0.0,meteohub,2013-01-03 12:56:00,
2013-01-03 05:01:00,36.9,27.7,30.20,ESE,113,30.0,35.0,69,0.00,,,0.00,0.0,meteohub,2013-01-03 13:01:00,
2013-01-03 05:06:00,37.0,27.5,30.20,East,89,25.0,36.0,68,0.00,,,0.00,0.0,meteohub,2013-01-03 13:06:00,
2013-01-03 05:11:00,37.0,27.5,30.19,ESE,109,25.0,40.0,68,0.00,,,0.00,0.0,meteohub,2013-01-03 13:11:00,
2013-01-03 05:16:00,37.2,27.7,30.19,ESE,117,27.0,40.0,68,0.00,,,0.00,0.0,meteohub,2013-01-03 13:16:00,
2013-01-03 05:21:00,37.2,27.3,30.19,East,90,24.0,40.0,67,0.00,,,0.00,0.0,meteohub,2013-01-03 13:21:00,
2013-01-03 05:26:00,36.9,27.3,30.18,East,91,6.0,41.0,68,0.00,,,0.00,0.0,meteohub,2013-01-03 13:26:00,
2013-01-03 05:31:00,36.5,27.3,30.19,ESE,119,15.0,41.0,69,0.00,,,0.00,0.0,meteohub,2013-01-03 13:31:00,
2013-01-03 05:36:00,36.7,27.5,30.18,SSE,150,15.0,40.0,69,0.00,,,0.00,0.0,meteohub,2013-01-03 13:36:00,
2013-01-03 05:41:00,36.9,27.3,30.18,ESE,111,25.0,40.0,68,0.00,,,0.00,0.0,meteohub,2013-01-03 13:41:00,
2013-01-03 05:46:00,36.9,27.7,30.18,East,101,20.0,40.0,69,0.00,,,0.00,0.0,meteohub,2013-01-03 13:46:00,
2013-01-03 05:51:00,36.9,27.3,30.18,East,98,21.0,40.0,68,0.00,,,0.00,0.0,meteohub,2013-01-03 13:51:00,
2013-01-03 05:56:00,36.9,27.3,30.18,ESE,119,24.0,37.0,68,0.00,,,0.00,0.0,meteohub,2013-01-03 13:56:00,
2013-01-03 06:01:00,36.9,27.3,30.18,ESE,109,28.0,37.0,68,0.00,,,0.00,0.0,meteohub,2013-01-03 14:01:00,
2013-01-03 06:06:00,36.9,27.3,30.17,East,89,13.0,37.0,68,0.00,,,0.00,0.0,meteohub,2013-01-03 14:06:00,
2013-01-03 06:11:00,36.9,27.7,30.18,ESE,108,10.0,37.0,69,0.00,,,0.00,0.0,meteohub,2013-01-03 14:11:00,
2013-01-03 06:16:00,36.7,27.9,30.17,ESE,113,22.0,36.0,70,0.00,,,0.00,0.0,meteohub,2013-01-03 14:16:00,
2013-01-03 06:21:00,36.5,27.7,30.17,ESE,119,26.0,36.0,70,0.00,,,0.00,0.0,meteohub,2013-01-03 14:21:00,
2013-01-03 06:27:00,36.3,27.1,30.17,ESE,111,28.0,33.0,69,0.00,,,0.00,0.0,meteohub,2013-01-03 14:27:00,
2013-01-03 06:32:00,36.7,27.9,30.17,East,83,14.0,35.0,70,0.00,,,0.00,0.0,meteohub,2013-01-03 14:32:00,
2013-01-03 06:37:00,36.9,27.7,30.17,ESE,117,15.0,35.0,69,0.00,,,0.00,0.0,meteohub,2013-01-03 14:37:00,
2013-01-03 06:42:00,36.9,27.7,30.17,SE,129,16.0,34.0,69,0.00,,,0.00,0.0,meteohub,2013-01-03 14:42:00,
2013-01-03 06:47:00,36.5,27.7,30.17,SE,139,12.0,34.0,70,0.00,,,0.00,0.0,meteohub,2013-01-03 14:47:00,
2013-01-03 06:52:00,36.3,27.5,30.16,East,100,10.0,37.0,70,0.00,,,0.00,0.0,meteohub,2013-01-03 14:52:00,
2013-01-03 06:57:00,36.5,27.3,30.17,East,84,4.0,37.0,69,0.00,,,0.00,0.0,meteohub,2013-01-03 14:57:00,
2013-01-03 07:02:00,36.7,27.5,30.17,ESE,110,22.0,37.0,69,0.00,,,0.00,0.0,meteohub,2013-01-03 15:02:00,
2013-01-03 07:07:00,36.7,27.5,30.17,ESE,115,30.0,36.0,69,0.00,,,0.00,0.0,meteohub,2013-01-03 15:07:00,
2013-01-03 07:12:00,36.7,27.5,30.16,ESE,110,22.0,39.0,69,0.00,,,0.00,0.0,meteohub,2013-01-03 15:12:00,
2013-01-03 07:17:00,36.5,27.3,30.16,East,98,30.0,39.0,69,0.00,,,0.00,0.0,meteohub,2013-01-03 15:17:00,
2013-01-03 07:22:00,36.7,27.5,30.16,ESE,109,26.0,41.0,69,0.00,,,0.00,0.0,meteohub,2013-01-03 15:22:00,
2013-01-03 07:27:00,36.5,27.3,30.15,ESE,110,23.0,41.0,69,0.00,,,0.00,0.0,meteohub,2013-01-03 15:27:00,
2013-01-03 07:32:00,36.7,27.1,30.15,East,101,21.0,41.0,68,0.00,,,0.00,0.0,meteohub,2013-01-03 15:32:00,
2013-01-03 07:37:00,36.7,27.1,30.15,ESE,119,17.0,34.0,68,0.00,,,0.00,0.0,meteohub,2013-01-03 15:37:00,
2013-01-03 07:42:00,36.7,27.1,30.15,East,99,28.0,33.0,68,0.00,,,0.00,0.0,meteohub,2013-01-03 15:42:00,
2013-01-03 07:47:00,36.9,27.3,30.15,SSE,155,12.0,33.0,68,0.00,,,0.00,0.0,meteohub,2013-01-03 15:47:00,
2013-01-03 07:52:00,36.9,27.0,30.15,East,98,16.0,38.0,67,0.00,,,0.00,0.0,meteohub,2013-01-03 15:52:00,
2013-01-03 07:57:00,36.9,27.0,30.16,ESE,105,19.0,40.0,67,0.00,,,0.00,0.0,meteohub,2013-01-03 15:57:00,
2013-01-03 08:02:00,36.9,26.6,30.16,East,100,15.0,42.0,66,0.00,,,0.00,0.0,meteohub,2013-01-03 16:02:00,
2013-01-03 08:07:00,36.9,27.0,30.15,East,89,14.0,42.0,67,0.00,,,0.00,5.0,meteohub,2013-01-03 16:07:00,
2013-01-03 08:12:00,36.9,27.0,30.14,East,94,17.0,35.0,67,0.00,,,0.00,7.0,meteohub,2013-01-03 16:12:00,
2013-01-03 08:18:00,36.5,27.0,30.15,SE,133,25.0,35.0,68,0.00,,,0.00,7.0,meteohub,2013-01-03 16:18:00,
2013-01-03 08:23:00,36.7,27.1,30.15,ENE,58,13.0,33.0,68,0.00,,,0.00,9.0,meteohub,2013-01-03 16:23:00,
2013-01-03 08:28:00,36.9,27.0,30.14,SE,132,24.0,33.0,67,0.00,,,0.00,9.0,meteohub,2013-01-03 16:28:00,
2013-01-03 08:33:00,37.0,26.8,30.15,East,93,30.0,38.0,66,0.00,,,0.00,11.0,meteohub,2013-01-03 16:33:00,
2013-01-03 08:38:00,37.0,26.8,30.15,ESE,123,17.0,38.0,66,0.00,,,0.00,11.0,meteohub,2013-01-03 16:38:00,
2013-01-03 08:43:00,37.2,27.0,30.15,ESE,105,20.0,38.0,66,0.00,,,0.00,12.0,meteohub,2013-01-03 16:43:00,
2013-01-03 08:48:00,36.9,26.6,30.15,ESE,109,14.0,36.0,66,0.00,,,0.00,12.0,meteohub,2013-01-03 16:48:00,
2013-01-03 08:53:00,36.9,26.6,30.15,East,101,16.0,39.0,66,0.00,,,0.00,14.0,meteohub,2013-01-03 16:53:00,
2013-01-03 08:58:00,36.9,27.0,30.15,ESE,111,17.0,39.0,67,0.00,,,0.00,14.0,meteohub,2013-01-03 16:58:00,
2013-01-03 09:03:00,36.9,27.0,30.14,East,86,21.0,39.0,67,0.00,,,0.00,16.0,meteohub,2013-01-03 17:03:00,
2013-01-03 09:08:00,36.9,26.6,30.14,ESE,110,14.0,38.0,66,0.00,,,0.00,16.0,meteohub,2013-01-03 17:08:00,
2013-01-03 09:13:00,36.9,27.0,30.15,ESE,112,20.0,40.0,67,0.00,,,0.00,16.0,meteohub,2013-01-03 17:13:00,
2013-01-03 09:18:00,37.0,26.8,30.14,ENE,78,13.0,40.0,66,0.00,,,0.00,18.0,meteohub,2013-01-03 17:18:00,
2013-01-03 09:23:00,37.0,26.8,30.15,SSE,156,20.0,40.0,66,0.00,,,0.00,18.0,meteohub,2013-01-03 17:23:00,
2013-01-03 09:28:00,37.0,26.8,30.15,ENE,61,15.0,37.0,66,0.00,,,0.00,18.0,meteohub,2013-01-03 17:28:00,
2013-01-03 09:33:00,37.0,26.8,30.16,East,98,16.0,37.0,66,0.00,,,0.00,18.0,meteohub,2013-01-03 17:33:00,
2013-01-03 09:38:00,37.2,27.0,30.15,East,84,13.0,34.0,66,0.00,,,0.00,19.0,meteohub,2013-01-03 17:38:00,
2013-01-03 09:43:00,37.2,27.0,30.16,ENE,77,12.0,34.0,66,0.00,,,0.00,19.0,meteohub,2013-01-03 17:43:00,
2013-01-03 09:48:00,37.2,27.3,30.15,ESE,104,24.0,34.0,67,0.00,,,0.00,19.0,meteohub,2013-01-03 17:48:00,
2013-01-03 09:53:00,37.0,26.8,30.15,ESE,121,23.0,33.0,66,0.00,,,0.00,19.0,meteohub,2013-01-03 17:53:00,
2013-01-03 09:58:00,37.2,27.0,30.15,ESE,107,5.0,33.0,66,0.00,,,0.00,21.0,meteohub,2013-01-03 17:58:00,
2013-01-03 10:03:00,37.2,28.4,30.15,SE,126,7.0,33.0,70,0.00,,,0.00,21.0,meteohub,2013-01-03 18:03:00,
2013-01-03 10:08:00,37.2,27.0,30.15,SE,135,22.0,32.0,66,0.00,,,0.00,21.0,meteohub,2013-01-03 18:08:00,
2013-01-03 10:13:00,37.6,27.0,30.16,ESE,113,15.0,28.0,65,0.00,,,0.00,21.0,meteohub,2013-01-03 18:13:00,
2013-01-03 10:18:00,37.2,27.0,30.15,ESE,119,24.0,29.0,66,0.00,,,0.00,23.0,meteohub,2013-01-03 18:18:00,
2013-01-03 10:23:00,37.6,27.3,30.15,ESE,119,12.0,29.0,66,0.00,,,0.00,23.0,meteohub,2013-01-03 18:23:00,
2013-01-03 10:29:00,37.8,26.6,30.16,ESE,104,12.0,34.0,64,0.00,,,0.00,25.0,meteohub,2013-01-03 18:29:00,
2013-01-03 10:34:00,37.9,26.8,30.16,East,89,3.0,34.0,64,0.00,,,0.00,25.0,meteohub,2013-01-03 18:34:00,
2013-01-03 10:39:00,37.9,26.8,30.16,ESE,111,15.0,27.0,64,0.00,,,0.00,26.0,meteohub,2013-01-03 18:39:00,
2013-01-03 10:44:00,37.9,27.1,30.15,ESE,104,11.0,27.0,65,0.00,,,0.00,26.0,meteohub,2013-01-03 18:44:00,
2013-01-03 10:49:00,37.8,27.5,30.16,ESE,121,12.0,23.0,66,0.00,,,0.00,26.0,meteohub,2013-01-03 18:49:00,
2013-01-03 10:54:00,37.8,27.1,30.16,ESE,111,5.0,21.0,65,0.00,,,0.00,28.0,meteohub,2013-01-03 18:54:00,
2013-01-03 10:59:00,37.9,27.1,30.16,ENE,73,3.0,21.0,65,0.00,,,0.00,28.0,meteohub,2013-01-03 18:59:00,
2013-01-03 11:04:00,37.9,27.1,30.16,East,82,3.0,21.0,65,0.00,,,0.00,47.0,meteohub,2013-01-03 19:04:00,
2013-01-03 11:09:00,38.1,27.0,30.16,WNW,302,6.0,19.0,64,0.00,,,0.00,230.0,meteohub,2013-01-03 19:09:00,
2013-01-03 11:14:00,38.7,28.6,30.16,West,273,0.0,14.0,67,0.00,,,0.00,285.0,meteohub,2013-01-03 19:14:00,
2013-01-03 11:53:00,37.6,28.8,30.14,ESE,109,6.0,11.0,70,0.00,,,0.00,30.0,meteohub,2013-01-03 19:53:00,
2013-01-03 11:58:00,37.6,28.0,30.14,ESE,122,6.0,13.0,68,0.00,,,0.00,30.0,meteohub,2013-01-03 19:58:00,
2013-01-03 12:03:00,37.9,28.0,30.15,ENE,65,8.0,13.0,67,0.00,,,0.00,28.0,meteohub,2013-01-03 20:03:00,
2013-01-03 12:08:00,38.1,27.9,30.14,ESE,117,6.0,13.0,66,0.00,,,0.00,28.0,meteohub,2013-01-03 20:08:00,
2013-01-03 12:13:00,38.1,28.2,30.14,ENE,59,6.0,14.0,67,0.00,,,0.00,26.0,meteohub,2013-01-03 20:13:00,
2013-01-03 12:18:00,38.3,28.2,30.14,SE,132,7.0,14.0,67,0.00,,,0.00,26.0,meteohub,2013-01-03 20:18:00,
2013-01-03 12:23:00,38.7,28.2,30.14,East,84,5.0,14.0,66,0.00,,,0.00,26.0,meteohub,2013-01-03 20:23:00,
2013-01-03 12:28:00,38.5,28.8,30.14,ENE,59,2.0,15.0,68,0.00,,,0.00,26.0,meteohub,2013-01-03 20:28:00,
2013-01-03 12:33:00,39.0,27.9,30.13,ESE,103,6.0,15.0,64,0.00,,,0.00,26.0,meteohub,2013-01-03 20:33:00,
2013-01-03 12:39:00,39.0,28.6,30.14,East,98,10.0,15.0,66,0.00,,,0.00,26.0,meteohub,2013-01-03 20:39:00,
2013-01-03 12:44:00,39.2,28.4,30.13,SE,146,2.0,14.0,65,0.00,,,0.00,26.0,meteohub,2013-01-03 20:44:00,
2013-01-03 12:49:00,39.2,28.8,30.13,SE,131,9.0,14.0,66,0.00,,,0.00,26.0,meteohub,2013-01-03 20:49:00,
2013-01-03 12:54:00,39.0,28.6,30.13,ESE,110,6.0,14.0,66,0.00,,,0.00,26.0,meteohub,2013-01-03 20:54:00,
2013-01-03 12:59:00,39.0,28.6,30.13,ESE,113,14.0,14.0,66,0.00,,,0.00,26.0,meteohub,2013-01-03 20:59:00,
2013-01-03 13:04:00,39.6,28.4,30.13,East,81,4.0,14.0,64,0.00,,,0.00,28.0,meteohub,2013-01-03 21:04:00,
2013-01-03 13:09:00,39.6,28.8,30.13,ESE,107,11.0,19.0,65,0.00,,,0.00,28.0,meteohub,2013-01-03 21:09:00,
2013-01-03 13:14:00,39.7,28.6,30.13,East,92,8.0,19.0,64,0.00,,,0.00,28.0,meteohub,2013-01-03 21:14:00,
2013-01-03 13:19:00,39.9,28.8,30.13,SE,135,14.0,24.0,64,0.00,,,0.00,28.0,meteohub,2013-01-03 21:19:00,
2013-01-03 13:24:00,39.9,28.8,30.13,East,81,14.0,24.0,64,0.00,,,0.00,28.0,meteohub,2013-01-03 21:24:00,
2013-01-03 13:29:00,40.3,28.8,30.13,ESE,111,10.0,24.0,63,0.00,,,0.00,28.0,meteohub,2013-01-03 21:29:00,
2013-01-03 13:34:00,39.9,28.8,30.13,ESE,109,6.0,18.0,64,0.00,,,0.00,28.0,meteohub,2013-01-03 21:34:00,
2013-01-03 13:39:00,40.3,28.8,30.13,SE,140,9.0,19.0,63,0.00,,,0.00,28.0,meteohub,2013-01-03 21:39:00,
2013-01-03 13:44:00,40.3,29.1,30.12,ESE,118,15.0,19.0,64,0.00,,,0.00,28.0,meteohub,2013-01-03 21:44:00,
2013-01-03 13:49:00,40.3,29.1,30.12,ESE,116,8.0,20.0,64,0.00,,,0.00,28.0,meteohub,2013-01-03 21:49:00,
2013-01-03 13:54:00,40.3,29.1,30.12,East,88,11.0,21.0,64,0.00,,,0.00,28.0,meteohub,2013-01-03 21:54:00,
2013-01-03 13:59:00,40.3,29.1,30.12,ESE,113,9.0,21.0,64,0.00,,,0.00,28.0,meteohub,2013-01-03 21:59:00,
2013-01-03 14:04:00,40.3,29.1,30.12,ESE,103,9.0,21.0,64,0.00,,,0.00,28.0,meteohub,2013-01-03 22:04:00,
2013-01-03 14:09:00,40.6,29.1,30.12,South,183,6.0,22.0,63,0.00,,,0.00,104.0,meteohub,2013-01-03 22:09:00,
2013-01-03 14:14:00,40.6,29.5,30.12,East,84,6.0,22.0,64,0.00,,,0.00,216.0,meteohub,2013-01-03 22:14:00,
2013-01-03 14:19:00,40.8,29.7,30.12,SE,132,6.0,21.0,64,0.00,,,0.00,209.0,meteohub,2013-01-03 22:19:00,
2013-01-03 14:24:00,40.5,29.3,30.12,ESE,110,12.0,18.0,64,0.00,,,0.00,202.0,meteohub,2013-01-03 22:24:00,
2013-01-03 14:30:00,40.5,29.3,30.12,East,92,7.0,18.0,64,0.00,,,0.00,195.0,meteohub,2013-01-03 22:30:00,
2013-01-03 14:35:00,40.6,29.5,30.12,ESE,118,8.0,17.0,64,0.00,,,0.00,186.0,meteohub,2013-01-03 22:35:00,
2013-01-03 14:40:00,41.2,29.1,30.12,North,5,6.0,17.0,62,0.00,,,0.00,179.0,meteohub,2013-01-03 22:40:00,
2013-01-03 14:45:00,40.8,29.1,30.12,ESE,120,5.0,18.0,63,0.00,,,0.00,171.0,meteohub,2013-01-03 22:45:00,
2013-01-03 14:50:00,40.8,29.7,30.12,ESE,111,6.0,18.0,64,0.00,,,0.00,163.0,meteohub,2013-01-03 22:50:00,
2013-01-03 14:55:00,40.6,29.5,30.11,SE,137,12.0,18.0,64,0.00,,,0.00,155.0,meteohub,2013-01-03 22:55:00,
2013-01-03 15:00:00,41.2,30.0,30.12,NNW,327,3.0,18.0,64,0.00,,,0.00,148.0,meteohub,2013-01-03 23:00:00,
2013-01-03 15:05:00,40.8,29.7,30.12,ESE,111,9.0,19.0,64,0.00,,,0.00,137.0,meteohub,2013-01-03 23:05:00,
2013-01-03 15:10:00,40.8,29.7,30.12,SSE,165,7.0,19.0,64,0.00,,,0.00,95.0,meteohub,2013-01-03 23:10:00,
2013-01-03 15:15:00,40.8,29.1,30.12,SSE,157,5.0,19.0,63,0.00,,,0.00,109.0,meteohub,2013-01-03 23:15:00,
2013-01-03 15:20:00,40.8,29.7,30.12,South,181,2.0,19.0,64,0.00,,,0.00,91.0,meteohub,2013-01-03 23:20:00,
2013-01-03 15:25:00,40.8,30.0,30.13,ESE,111,0.0,19.0,65,0.00,,,0.00,60.0,meteohub,2013-01-03 23:25:00,
2013-01-03 15:30:00,39.7,30.4,30.13,ESE,105,6.0,19.0,69,0.00,,,0.00,47.0,meteohub,2013-01-03 23:30:00,
2013-01-03 15:35:00,39.7,29.7,30.13,ESE,105,11.0,14.0,67,0.00,,,0.00,28.0,meteohub,2013-01-03 23:35:00,
2013-01-03 15:40:00,39.6,29.5,30.13,East,92,3.0,16.0,67,0.00,,,0.00,16.0,meteohub,2013-01-03 23:40:00,
2013-01-03 15:45:00,39.4,30.0,30.14,NE,53,0.0,16.0,69,0.00,,,0.00,12.0,meteohub,2013-01-03 23:45:00,
2013-01-03 15:50:00,39.2,31.6,30.15,North,350,0.0,16.0,74,0.00,,,0.00,11.0,meteohub,2013-01-03 23:50:00,
2013-01-03 15:55:00,38.8,31.6,30.16,North,350,0.0,7.0,75,0.00,,,0.00,9.0,meteohub,2013-01-03 23:55:00,
2013-01-03 16:00:00,38.5,29.8,30.15,SE,130,6.0,7.0,71,0.00,,,0.00,7.0,meteohub,2013-01-04 00:00:00,
2013-01-03 16:05:00,37.9,30.4,30.15,SSE,149,6.0,11.0,74,0.00,,,0.00,5.0,meteohub,2013-01-04 00:05:00,
2013-01-03 16:10:00,37.6,30.0,30.15,ESE,119,5.0,11.0,74,0.00,,,0.00,5.0,meteohub,2013-01-04 00:10:00,
2013-01-03 16:15:00,37.9,30.0,30.15,East,94,1.0,12.0,73,0.00,,,0.00,5.0,meteohub,2013-01-04 00:15:00,
2013-01-03 16:20:00,37.6,31.1,30.16,NNE,32,2.0,12.0,77,0.00,,,0.00,0.0,meteohub,2013-01-04 00:20:00,
2013-01-03 16:25:00,37.0,30.6,30.16,NNE,32,0.0,12.0,77,0.00,,,0.00,0.0,meteohub,2013-01-04 00:25:00,
2013-01-03 16:30:00,36.7,30.7,30.17,NNE,32,0.0,3.0,79,0.00,,,0.00,0.0,meteohub,2013-01-04 00:30:00,
2013-01-03 16:35:00,36.1,30.2,30.16,NNE,32,2.0,3.0,79,0.00,,,0.00,0.0,meteohub,2013-01-04 00:35:00,
2013-01-03 16:40:00,36.0,30.4,30.16,ENE,68,3.0,3.0,80,0.00,,,0.00,0.0,meteohub,2013-01-04 00:40:00,
2013-01-03 16:45:00,36.9,30.0,30.16,East,82,7.0,11.0,76,0.00,,,0.00,0.0,meteohub,2013-01-04 00:45:00,
2013-01-03 16:50:00,37.6,30.0,30.16,ESE,119,18.0,18.0,74,0.00,,,0.00,0.0,meteohub,2013-01-04 00:50:00,
2013-01-03 16:55:00,37.6,30.0,30.17,East,87,3.0,18.0,74,0.00,,,0.00,0.0,meteohub,2013-01-04 00:55:00,
2013-01-03 17:01:00,37.2,30.9,30.17,West,273,0.0,18.0,78,0.00,,,0.00,0.0,meteohub,2013-01-04 01:01:00,
2013-01-03 17:06:00,36.1,30.6,30.18,West,280,2.0,18.0,80,0.00,,,0.00,0.0,meteohub,2013-01-04 01:06:00,
2013-01-03 17:11:00,35.4,30.6,30.18,West,280,1.0,11.0,82,0.00,,,0.00,0.0,meteohub,2013-01-04 01:11:00,
2013-01-03 17:16:00,35.1,30.7,30.18,West,280,0.0,4.0,84,0.00,,,0.00,0.0,meteohub,2013-01-04 01:16:00,
2013-01-03 17:21:00,34.9,30.0,30.18,West,269,3.0,9.0,82,0.00,,,0.00,0.0,meteohub,2013-01-04 01:21:00,
2013-01-03 17:26:00,35.2,30.9,30.18,ESE,112,8.0,9.0,84,0.00,,,0.00,0.0,meteohub,2013-01-04 01:26:00,
2013-01-03 17:31:00,36.1,30.0,30.18,East,88,6.0,11.0,78,0.00,,,0.00,0.0,meteohub,2013-01-04 01:31:00,
2013-01-03 17:36:00,36.5,30.0,30.17,East,101,10.0,13.0,77,0.00,,,0.00,0.0,meteohub,2013-01-04 01:36:00,
2013-01-03 17:41:00,36.5,30.0,30.18,SE,137,2.0,13.0,77,0.00,,,0.00,0.0,meteohub,2013-01-04 01:41:00,
2013-01-03 17:46:00,36.0,30.7,30.18,West,269,3.0,13.0,81,0.00,,,0.00,0.0,meteohub,2013-01-04 01:46:00,
2013-01-03 17:51:00,36.1,30.0,30.17,ESE,118,8.0,15.0,78,0.00,,,0.00,0.0,meteohub,2013-01-04 01:51:00,
2013-01-03 17:56:00,36.9,30.0,30.17,ESE,123,9.0,15.0,76,0.00,,,0.00,0.0,meteohub,2013-01-04 01:56:00,
2013-01-03 18:01:00,36.9,29.7,30.17,ESE,109,17.0,17.0,75,0.00,,,0.00,0.0,meteohub,2013-01-04 02:01:00,
2013-01-03 18:06:00,37.2,29.7,30.17,SW,229,5.0,18.0,74,0.00,,,0.00,0.0,meteohub,2013-01-04 02:06:00,
2013-01-03 18:11:00,36.5,30.6,30.17,WNW,289,0.0,18.0,79,0.00,,,0.00,0.0,meteohub,2013-01-04 02:11:00,
2013-01-03 18:16:00,35.6,30.7,30.17,WNW,289,0.0,18.0,82,0.00,,,0.00,0.0,meteohub,2013-01-04 02:16:00,
2013-01-03 18:21:00,35.2,30.4,30.17,ESE,119,6.0,7.0,82,0.00,,,0.00,0.0,meteohub,2013-01-04 02:21:00,
2013-01-03 18:26:00,35.8,30.2,30.18,North,0,3.0,10.0,80,0.00,,,0.00,0.0,meteohub,2013-01-04 02:26:00,
2013-01-03 18:31:00,35.2,30.6,30.17,SE,141,3.0,10.0,83,0.00,,,0.00,0.0,meteohub,2013-01-04 02:31:00,
2013-01-03 18:36:00,35.6,29.7,30.17,ESE,123,7.0,10.0,79,0.00,,,0.00,0.0,meteohub,2013-01-04 02:36:00,
2013-01-03 18:41:00,36.0,30.0,30.17,East,84,4.0,11.0,79,0.00,,,0.00,0.0,meteohub,2013-01-04 02:41:00,
2013-01-03 18:46:00,36.1,30.0,30.17,ESE,119,7.0,11.0,78,0.00,,,0.00,0.0,meteohub,2013-01-04 02:46:00,
2013-01-03 18:51:00,36.9,29.7,30.17,South,172,3.0,13.0,75,0.00,,,0.00,0.0,meteohub,2013-01-04 02:51:00,
2013-01-03 18:56:00,37.2,29.7,30.17,NNE,19,2.0,15.0,74,0.00,,,0.00,0.0,meteohub,2013-01-04 02:56:00,
2013-01-03 19:01:00,36.9,30.9,30.17,NW,312,0.0,15.0,79,0.00,,,0.00,0.0,meteohub,2013-01-04 03:01:00,
2013-01-03 19:06:00,36.1,30.9,30.17,NW,310,0.0,15.0,81,0.00,,,0.00,0.0,meteohub,2013-01-04 03:06:00,
2013-01-03 19:11:00,36.0,30.4,30.17,ENE,74,1.0,5.0,80,0.00,,,0.00,0.0,meteohub,2013-01-04 03:11:00,
2013-01-03 19:16:00,36.7,28.8,30.17,SE,144,6.0,13.0,73,0.00,,,0.00,0.0,meteohub,2013-01-04 03:16:00,
2013-01-03 19:21:00,37.0,29.1,30.17,SE,126,9.0,13.0,73,0.00,,,0.00,0.0,meteohub,2013-01-04 03:21:00,
2013-01-03 19:26:00,37.6,29.1,30.17,ESE,111,1.0,13.0,71,0.00,,,0.00,0.0,meteohub,2013-01-04 03:26:00,
2013-01-03 19:31:00,37.6,31.1,30.17,West,278,2.0,14.0,77,0.00,,,0.00,0.0,meteohub,2013-01-04 03:31:00,
2013-01-03 19:37:00,36.9,31.3,30.17,West,280,2.0,14.0,80,0.00,,,0.00,0.0,meteohub,2013-01-04 03:37:00,
2013-01-03 19:42:00,36.1,31.1,30.17,WNW,289,0.0,10.0,82,0.00,,,0.00,0.0,meteohub,2013-01-04 03:42:00,
2013-01-03 19:47:00,35.8,31.1,30.17,WNW,289,1.0,5.0,83,0.00,,,0.00,0.0,meteohub,2013-01-04 03:47:00,
2013-01-03 19:52:00,35.2,30.9,30.17,WNW,289,2.0,5.0,84,0.00,,,0.00,0.0,meteohub,2013-01-04 03:52:00,
2013-01-03 19:57:00,35.1,30.9,30.17,WNW,289,2.0,4.0,85,0.00,,,0.00,0.0,meteohub,2013-01-04 03:57:00,
2013-01-03 20:02:00,34.5,30.7,30.17,WNW,289,2.0,4.0,86,0.00,,,0.00,0.0,meteohub,2013-01-04 04:02:00,
2013-01-03 20:07:00,34.3,30.9,30.16,WNW,289,3.0,4.0,87,0.00,,,0.00,0.0,meteohub,2013-01-04 04:07:00,
2013-01-03 20:12:00,34.3,31.1,30.16,WNW,289,2.0,4.0,88,0.00,,,0.00,0.0,meteohub,2013-01-04 04:12:00,
2013-01-03 20:17:00,35.2,29.1,30.16,SSE,163,0.0,4.0,78,0.00,,,0.00,0.0,meteohub,2013-01-04 04:17:00,
2013-01-03 20:22:00,36.5,28.4,30.17,SE,143,2.0,12.0,72,0.00,,,0.00,0.0,meteohub,2013-01-04 04:22:00,
2013-01-03 20:27:00,36.9,28.8,30.16,South,176,1.0,12.0,72,0.00,,,0.00,0.0,meteohub,2013-01-04 04:27:00,
2013-01-03 20:32:00,37.6,28.0,30.17,SE,130,6.0,12.0,68,0.00,,,0.00,0.0,meteohub,2013-01-04 04:32:00,
2013-01-03 20:37:00,37.9,28.8,30.17,ESE,121,1.0,14.0,69,0.00,,,0.00,0.0,meteohub,2013-01-04 04:37:00,
2013-01-03 20:42:00,37.6,31.1,30.17,WNW,288,3.0,15.0,77,0.00,,,0.00,0.0,meteohub,2013-01-04 04:42:00,
2013-01-03 20:47:00,36.7,31.5,30.18,WNW,288,0.0,15.0,81,0.00,,,0.00,0.0,meteohub,2013-01-04 04:47:00,
2013-01-03 20:52:00,36.0,31.6,30.19,WSW,246,3.0,6.0,84,0.00,,,0.00,0.0,meteohub,2013-01-04 04:52:00,
2013-01-03 20:57:00,35.6,31.5,30.20,West,277,3.0,5.0,85,0.00,,,0.00,0.0,meteohub,2013-01-04 04:57:00,
2013-01-03 21:01:00,35.2,31.5,30.20,WNW,286,3.0,5.0,86,0.00,,,0.00,0.0,meteohub,2013-01-04 05:01:00,
2013-01-03 21:02:00,35.2,31.5,30.20,WNW,286,3.0,5.0,86,0.00,,,0.00,0.0,meteohub,2013-01-04 05:02:00,
2013-01-03 21:04:00,35.1,31.6,30.20,WNW,286,0.0,5.0,87,0.00,,,0.00,0.0,meteohub,2013-01-04 05:04:00,
2013-01-03 21:09:00,34.9,31.6,30.21,WNW,286,0.0,7.0,88,0.00,,,0.00,0.0,meteohub,2013-01-04 05:09:00,
2013-01-03 21:14:00,34.7,31.5,30.21,WNW,286,0.0,7.0,88,0.00,,,0.00,0.0,meteohub,2013-01-04 05:14:00,
2013-01-03 21:19:00,34.7,31.5,30.21,WNW,286,0.0,4.0,88,0.00,,,0.00,0.0,meteohub,2013-01-04 05:19:00,
2013-01-03 21:24:00,34.7,31.3,30.21,WNW,286,0.0,3.0,87,0.00,,,0.00,0.0,meteohub,2013-01-04 05:24:00,
2013-01-03 21:29:00,34.7,31.3,30.22,WNW,286,0.0,3.0,87,0.00,,,0.00,0.0,meteohub,2013-01-04 05:29:00,
2013-01-03 21:34:00,34.9,31.1,30.22,North,9,1.0,3.0,86,0.00,,,0.00,0.0,meteohub,2013-01-04 05:34:00,
2013-01-03 21:39:00,35.2,31.1,30.22,SE,137,2.0,8.0,85,0.00,,,0.00,0.0,meteohub,2013-01-04 05:39:00,
2013-01-03 21:44:00,35.2,31.5,30.22,ENE,59,1.0,8.0,86,0.00,,,0.00,0.0,meteohub,2013-01-04 05:44:00,
2013-01-03 21:49:00,35.1,31.6,30.22,SE,135,5.0,8.0,87,0.01,,,0.01,0.0,meteohub,2013-01-04 05:49:00,
2013-01-03 21:54:00,34.7,31.3,30.22,East,92,3.0,6.0,87,0.02,,,0.02,0.0,meteohub,2013-01-04 05:54:00,
2013-01-03 21:59:00,34.5,31.3,30.22,SE,141,2.0,6.0,88,0.02,,,0.02,0.0,meteohub,2013-01-04 05:59:00,
2013-01-03 22:04:00,34.2,31.5,30.22,ESE,113,5.0,12.0,90,0.02,,,0.02,0.0,meteohub,2013-01-04 06:04:00,
2013-01-03 22:09:00,34.0,31.6,30.22,NE,40,0.0,12.0,91,0.02,,,0.02,0.0,meteohub,2013-01-04 06:09:00,
2013-01-03 22:14:00,33.8,31.5,30.22,NNW,340,2.0,11.0,91,0.03,,,0.03,0.0,meteohub,2013-01-04 06:14:00,
2013-01-03 22:19:00,33.6,31.5,30.23,NNW,340,0.0,7.0,92,0.03,,,0.03,0.0,meteohub,2013-01-04 06:19:00,
2013-01-03 22:24:00,33.4,31.3,30.23,NNW,340,0.0,3.0,92,0.04,,,0.04,0.0,meteohub,2013-01-04 06:24:00,
2013-01-03 22:29:00,33.4,31.6,30.22,NNW,340,0.0,3.0,93,0.04,,,0.04,0.0,meteohub,2013-01-04 06:29:00,
2013-01-03 22:34:00,33.4,31.6,30.22,NNW,340,0.0,3.0,93,0.04,,,0.04,0.0,meteohub,2013-01-04 06:34:00,
2013-01-03 22:40:00,33.4,31.6,30.23,ESE,113,2.0,2.0,93,0.04,,,0.04,0.0,meteohub,2013-01-04 06:40:00,
2013-01-03 22:45:00,33.6,31.8,30.23,ESE,109,2.0,5.0,93,0.04,,,0.05,0.0,meteohub,2013-01-04 06:45:00,
2013-01-03 22:50:00,33.6,31.8,30.23,ESE,118,3.0,5.0,93,0.04,,,0.05,0.0,meteohub,2013-01-04 06:50:00,
2013-01-03 22:55:00,33.8,32.0,30.23,East,83,0.0,5.0,93,0.03,,,0.05,0.0,meteohub,2013-01-04 06:55:00,
2013-01-03 23:00:00,34.0,31.8,30.22,East,83,0.0,5.0,92,0.03,,,0.05,0.0,meteohub,2013-01-04 07:00:00,
2013-01-03 23:05:00,34.0,31.8,30.22,East,92,2.0,5.0,92,0.03,,,0.05,0.0,meteohub,2013-01-04 07:05:00,
2013-01-03 23:10:00,34.0,31.8,30.22,East,92,1.0,5.0,92,0.03,,,0.05,0.0,meteohub,2013-01-04 07:10:00,
2013-01-03 23:15:00,33.8,31.6,30.22,East,92,0.0,5.0,92,0.02,,,0.05,0.0,meteohub,2013-01-04 07:15:00,
2013-01-03 23:20:00,33.6,31.8,30.23,East,92,0.0,5.0,93,0.02,,,0.05,0.0,meteohub,2013-01-04 07:20:00,
2013-01-03 23:25:00,33.6,31.8,30.22,East,92,0.0,2.0,93,0.02,,,0.06,0.0,meteohub,2013-01-04 07:25:00,
2013-01-03 23:30:00,33.4,31.6,30.22,East,92,0.0,1.0,93,0.02,,,0.06,0.0,meteohub,2013-01-04 07:30:00,
2013-01-03 23:35:00,33.4,31.6,30.22,East,92,0.0,1.0,93,0.01,,,0.06,0.0,meteohub,2013-01-04 07:35:00,
2013-01-03 23:40:00,33.3,31.5,30.22,East,92,0.0,1.0,93,0.02,,,0.07,0.0,meteohub,2013-01-04 07:40:00,
2013-01-03 23:45:00,33.3,31.5,30.22,East,92,0.0,1.0,93,0.02,,,0.07,0.0,meteohub,2013-01-04 07:45:00,
2013-01-03 23:50:00,33.3,31.5,30.22,East,92,0.0,1.0,93,0.03,,,0.08,0.0,meteohub,2013-01-04 07:50:00,
2013-01-03 23:55:00,33.1,31.5,30.22,East,92,0.0,1.0,94,0.03,,,0.08,0.0,meteohub,2013-01-04 07:55:00,